When you browse on this site, cookies collect data to enhance your experience and personalize the content and advertising you see.
Visit our Privacy Policy to learn more. By continuing to use the site, you agree to this use of cookies and data.
  • En España
  • Lista de países
  • Para 7 días
  • Temperatura del agua
  • El tiempo en el mapa
  • Informadores
  • user-avatar
    Iniciar sesión

    Tiempo cada hora Cheremisino

    Hoy, 15 Diciembre, Domingo

    Tiempo Temperatura Precipitaciones Viento Presión Humedad
    00:00 -4°C° 0 mm 5 mps 747 mmHg 91%
    01:00 -2°C° 0.1 mm 5 mps 746 mmHg 91%
    02:00 -2°C° 0.1 mm 5 mps 746 mmHg 92%
    03:00 -1°C° 0.1 mm 5 mps 746 mmHg 92%
    04:00 -1°C° 0 mm 5 mps 746 mmHg 93%
    05:00 -1°C° 0 mm 5 mps 745 mmHg 94%
    06:00 -1°C° 0 mm 5 mps 745 mmHg 95%
    07:00 0°C° 0 mm 5 mps 745 mmHg 95%
    08:00 0°C° 0 mm 5 mps 745 mmHg 95%
    09:00 0°C° 0 mm 5 mps 745 mmHg 95%
    10:00 0°C° 0 mm 5 mps 744 mmHg 95%
    11:00 0°C° 0 mm 5 mps 744 mmHg 95%
    12:00 -1°C° 0 mm 6 mps 744 mmHg 95%
    13:00 -1°C° 0 mm 6 mps 743 mmHg 95%
    14:00 +1°C° 0 mm 6 mps 743 mmHg 94%
    15:00 +1°C° 0 mm 6 mps 743 mmHg 93%
    16:00 +1°C° 0.1 mm 6 mps 742 mmHg 93%
    17:00 0°C° 0.1 mm 7 mps 742 mmHg 93%
    18:00 0°C° 0.1 mm 7 mps 742 mmHg 94%
    19:00 0°C° 0.9 mm 7 mps 742 mmHg 94%
    20:00 0°C° 0.9 mm 7 mps 742 mmHg 94%
    21:00 +1°C° 0.9 mm 6 mps 742 mmHg 94%
    22:00 +1°C° 0.8 mm 6 mps 742 mmHg 95%
    23:00 +1°C° 0.8 mm 5 mps 742 mmHg 95%

    Mañana, 16 Diciembre, Lunes

    Tiempo Temperatura Precipitaciones Viento Presión Humedad
    00:00 +1°C° 0.8 mm 4 mps 742 mmHg 96%
    01:00 0°C° 0 mm 4 mps 743 mmHg 95%
    02:00 -1°C° 0 mm 4 mps 743 mmHg 94%
    03:00 -1°C° 0 mm 3 mps 743 mmHg 93%
    04:00 -1°C° 0 mm 3 mps 743 mmHg 93%
    05:00 -2°C° 0 mm 4 mps 744 mmHg 93%
    06:00 -3°C° 0 mm 4 mps 744 mmHg 93%
    07:00 -2°C° 0 mm 4 mps 744 mmHg 92%
    08:00 -2°C° 0 mm 4 mps 744 mmHg 92%
    09:00 -2°C° 0 mm 4 mps 745 mmHg 91%
    10:00 -2°C° 0 mm 4 mps 744 mmHg 92%
    11:00 -1°C° 0 mm 5 mps 744 mmHg 94%
    12:00 -1°C° 0 mm 5 mps 744 mmHg 95%
    13:00 0°C° 0.1 mm 5 mps 744 mmHg 95%
    14:00 0°C° 0.1 mm 5 mps 743 mmHg 94%
    15:00 0°C° 0.1 mm 5 mps 743 mmHg 93%
    16:00 0°C° 0 mm 5 mps 743 mmHg 91%
    17:00 0°C° 0 mm 5 mps 743 mmHg 88%
    18:00 0°C° 0 mm 5 mps 744 mmHg 85%
    19:00 -1°C° 0 mm 6 mps 744 mmHg 86%
    20:00 -1°C° 0 mm 6 mps 744 mmHg 86%
    21:00 -1°C° 0 mm 6 mps 744 mmHg 86%
    22:00 -1°C° 0 mm 6 mps 744 mmHg 85%
    23:00 -1°C° 0 mm 6 mps 745 mmHg 85%

    Pasado mañana, 17 Diciembre, Martes

    Tiempo Temperatura Precipitaciones Viento Presión Humedad
    00:00 -1°C° 0 mm 6 mps 745 mmHg 84%
    01:00 -1°C° 0 mm 6 mps 745 mmHg 84%
    02:00 -2°C° 0 mm 6 mps 746 mmHg 84%
    03:00 -2°C° 0 mm 6 mps 747 mmHg 83%
    04:00 -2°C° 0 mm 6 mps 747 mmHg 86%
    05:00 -2°C° 0 mm 6 mps 748 mmHg 88%
    06:00 -2°C° 0 mm 5 mps 748 mmHg 90%
    07:00 -2°C° 0 mm 5 mps 748 mmHg 91%
    08:00 -2°C° 0 mm 4 mps 749 mmHg 91%
    09:00 -2°C° 0 mm 4 mps 749 mmHg 92%
    10:00 -1°C° 0 mm 4 mps 749 mmHg 90%
    11:00 -1°C° 0 mm 4 mps 749 mmHg 87%
    12:00 -1°C° 0 mm 4 mps 749 mmHg 85%
    13:00 -1°C° 0 mm 4 mps 748 mmHg 84%
    14:00 0°C° 0 mm 5 mps 748 mmHg 82%
    15:00 0°C° 0 mm 5 mps 747 mmHg 80%
    16:00 0°C° 0.4 mm 5 mps 746 mmHg 83%
    17:00 0°C° 0.4 mm 5 mps 746 mmHg 86%
    18:00 -1°C° 0.4 mm 6 mps 746 mmHg 89%
    19:00 +1°C° 0.3 mm 5 mps 745 mmHg 91%
    20:00 +1°C° 0.3 mm 5 mps 745 mmHg 92%
    21:00 +1°C° 0.3 mm 5 mps 745 mmHg 93%
    22:00 +1°C° 0.2 mm 5 mps 745 mmHg 94%
    23:00 +1°C° 0.2 mm 5 mps 746 mmHg 94%

    18 Diciembre, Miércoles

    Tiempo Temperatura Precipitaciones Viento Presión Humedad
    00:00 +1°C° 0.2 mm 5 mps 746 mmHg 95%
    01:00 +1°C° 0.1 mm 4 mps 746 mmHg 95%
    02:00 +1°C° 0.1 mm 4 mps 746 mmHg 95%
    03:00 +1°C° 0.1 mm 4 mps 746 mmHg 96%
    04:00 +1°C° 0 mm 3 mps 746 mmHg 96%
    05:00 +1°C° 0 mm 3 mps 747 mmHg 97%
    06:00 +2°C° 0 mm 2 mps 747 mmHg 97%
    07:00 +2°C° 0 mm 2 mps 747 mmHg 97%
    08:00 +2°C° 0 mm 2 mps 747 mmHg 97%
    09:00 +3°C° 0 mm 1 mps 747 mmHg 97%
    10:00 +4°C° 0 mm 1 mps 747 mmHg 96%
    11:00 +4°C° 0 mm 1 mps 747 mmHg 96%
    12:00 +4°C° 0 mm 1 mps 747 mmHg 95%
    13:00 +3°C° 0.1 mm 2 mps 747 mmHg 95%
    14:00 +3°C° 0.1 mm 2 mps 746 mmHg 96%
    15:00 +2°C° 0.1 mm 3 mps 746 mmHg 96%
    16:00 +2°C° 0 mm 3 mps 746 mmHg 95%
    17:00 +2°C° 0 mm 3 mps 746 mmHg 95%
    18:00 0°C° 0 mm 4 mps 745 mmHg 95%
    19:00 0°C° 0 mm 4 mps 745 mmHg 95%
    20:00 0°C° 0 mm 4 mps 745 mmHg 95%
    21:00 0°C° 0 mm 4 mps 745 mmHg 95%
    22:00 0°C° 0 mm 4 mps 744 mmHg 95%
    23:00 0°C° 0 mm 4 mps 744 mmHg 95%

    19 Diciembre, Jueves

    Tiempo Temperatura Precipitaciones Viento Presión Humedad
    00:00 0°C° 0 mm 4 mps 744 mmHg 95%
    01:00 0°C° 0 mm 5 mps 744 mmHg 94%
    02:00 0°C° 0 mm 5 mps 743 mmHg 93%
    03:00 0°C° 0 mm 5 mps 743 mmHg 93%
    04:00 0°C° 0 mm 5 mps 742 mmHg 92%
    05:00 -1°C° 0 mm 6 mps 742 mmHg 92%
    06:00 +1°C° 0 mm 6 mps 741 mmHg 91%
    07:00 0°C° 0 mm 7 mps 741 mmHg 92%
    08:00 0°C° 0 mm 7 mps 741 mmHg 93%
    09:00 0°C° 0 mm 7 mps 741 mmHg 94%
    10:00 0°C° 0 mm 7 mps 741 mmHg 92%
    11:00 +2°C° 0 mm 7 mps 741 mmHg 90%
    12:00 +2°C° 0 mm 7 mps 742 mmHg 87%
    13:00 +2°C° 0 mm 6 mps 742 mmHg 84%
    14:00 +2°C° 0 mm 6 mps 742 mmHg 81%
    15:00 +2°C° 0 mm 6 mps 742 mmHg 78%
    16:00 +2°C° 0 mm 6 mps 742 mmHg 76%
    17:00 +1°C° 0 mm 5 mps 743 mmHg 75%
    18:00 +1°C° 0 mm 5 mps 743 mmHg 74%
    19:00 0°C° 0 mm 5 mps 743 mmHg 76%
    20:00 0°C° 0 mm 4 mps 743 mmHg 78%
    21:00 -1°C° 0 mm 4 mps 744 mmHg 80%
    22:00 -1°C° 0 mm 4 mps 744 mmHg 82%
    23:00 -2°C° 0 mm 4 mps 744 mmHg 85%

    20 Diciembre, Viernes

    Tiempo Temperatura Precipitaciones Viento Presión Humedad
    00:00 -1°C° 0 mm 3 mps 745 mmHg 87%
    01:00 -2°C° 0 mm 3 mps 745 mmHg 88%
    02:00 -2°C° 0 mm 3 mps 745 mmHg 90%
    03:00 -2°C° 0 mm 3 mps 745 mmHg 91%
    04:00 -3°C° 0 mm 4 mps 745 mmHg 86%
    05:00 -3°C° 0 mm 4 mps 745 mmHg 82%
    06:00 -2°C° 0 mm 4 mps 745 mmHg 77%
    07:00 -2°C° 0 mm 4 mps 746 mmHg 76%
    08:00 -2°C° 0 mm 4 mps 746 mmHg 75%
    09:00 -1°C° 0 mm 3 mps 746 mmHg 74%
    10:00 -1°C° 0 mm 3 mps 746 mmHg 73%
    11:00 -1°C° 0 mm 3 mps 747 mmHg 72%
    12:00 -2°C° 0 mm 4 mps 747 mmHg 71%
    13:00 -1°C° 0 mm 3 mps 747 mmHg 73%
    14:00 -1°C° 0 mm 3 mps 747 mmHg 74%
    15:00 -1°C° 0 mm 2 mps 746 mmHg 76%
    16:00 -2°C° 0 mm 2 mps 747 mmHg 79%
    17:00 -2°C° 0 mm 2 mps 747 mmHg 82%
    18:00 -3°C° 0 mm 2 mps 747 mmHg 85%
    19:00 -3°C° 0 mm 2 mps 747 mmHg 87%
    20:00 -3°C° 0 mm 2 mps 747 mmHg 89%
    21:00 -3°C° 0 mm 2 mps 747 mmHg 91%
    22:00 -3°C° 0 mm 2 mps 748 mmHg 91%
    23:00 -3°C° 0 mm 2 mps 748 mmHg 91%
    Mostrar más